Weather History for Linden, NJ

Change the Weather History Date:

Sunday, August 10, 2014

  Actual Average (KEWR) Record (KEWR)
Temperature  
Mean Temperature 80 °F 77 °F  
Max Temperature 91 °F 85 °F 102 °F (1949)
Min Temperature 68 °F 68 °F 57 °F (1962)
Degree Days  
Heating Degree Days 0 0  
Month to date heating degree days 0  
Since 1 June heating degree days 17  
Since 1 July heating degree days 0  
Cooling Degree Days 14 12  
Month to date cooling degree days 120  
Year to date cooling degree days 818  
Since 1 June cooling degree days 742  
Growing Degree Days 30 (Base 50)    
Moisture  
Dew Point 59 °F    
Average Humidity 48    
Maximum Humidity 77    
Minimum Humidity 28    
Precipitation  
Precipitation 0.00 in 0.12 in 1.94 in (2007)
Month to date precipitation 1.42  
Year to date precipitation 29.09  
Snow  
Snow 0.00 in 0.00 in 0.00 in (2002)
Month to date snowfall 0.0  
Since 1 July snowfall 0.0  
Snow Depth -    
Sea Level Pressure  
Sea Level Pressure 30.13 in    
Wind  
Wind Speed 2 mph (SSE)    
Max Wind Speed 10 mph    
Max Gust Speed -    
Visibility 10 miles    
Events      
T = Trace of Precipitation, MM = Missing Value Source: NWS Daily Summary

Daily Weather History Graph

Daily Weather History Graph

Search for Another Location

Airport:

Trip Planner

Search our weather history database for the weather conditions in past years. The results will help you decide how hot, cold, wet, or windy it might be!

Date:

Astronomy

Aug. 10, 2014 Rise Set
Actual Time 6:02 AM EDT 8:01 PM EDT
Civil Twilight 5:32 AM EDT 8:31 PM EDT
Nautical Twilight 4:56 AM EDT 9:07 PM EDT
Astronomical Twilight 4:16 AM EDT 9:46 PM EDT
Moon 7:45 PM EDT (8/10) 5:51 AM EDT (8/10)
Length of Visible Light 14h 58m
Length of Day
13h 58m
Full, 100% of the Moon is Illuminated
Aug 10
Full
Aug 10
Full
Aug 17
Last Quarter
Aug 25
New
Sep 2
First Quarter

Hourly Weather History & Observations

Time (EDT) Temp. Heat Index Dew Point Humidity Pressure Visibility Wind Dir Wind Speed Gust Speed Precip Events Conditions
12:15 AM 75.7 °F - 62.6 °F 64% 30.14 in 10.0 mi Calm Calm - N/A   Clear
12:35 AM 75.6 °F - 62.6 °F 64% 30.13 in 10.0 mi Calm Calm - N/A   Clear
12:55 AM 75.4 °F - 62.6 °F 64% 30.13 in 10.0 mi Calm Calm - N/A   Clear
1:15 AM 73.9 °F - 62.6 °F 68% 30.13 in 10.0 mi Calm Calm - N/A   Clear
1:35 AM 73.4 °F - 63.1 °F 70% 30.13 in 10.0 mi Calm Calm - N/A   Clear
1:55 AM 73.6 °F - 62.8 °F 69% 30.13 in 10.0 mi Calm Calm - N/A   Clear
2:15 AM 73.4 °F - 63.0 °F 70% 30.13 in 10.0 mi Calm Calm - N/A   Clear
2:35 AM 72.5 °F - 63.0 °F 72% 30.12 in 10.0 mi Calm Calm - N/A   Clear
2:55 AM 71.6 °F - 62.8 °F 74% 30.12 in 10.0 mi Calm Calm - N/A   Clear
3:15 AM 71.1 °F - 62.6 °F 75% 30.12 in 10.0 mi Calm Calm - N/A   Clear
3:35 AM 71.2 °F - 62.8 °F 75% 30.12 in 10.0 mi Calm Calm - N/A   Clear
3:55 AM 71.6 °F - 62.6 °F 73% 30.13 in 10.0 mi Calm Calm - N/A   Clear
4:15 AM 70.7 °F - 61.5 °F 73% 30.13 in 10.0 mi NW 3.5 mph - N/A   Clear
4:35 AM 69.8 °F - 61.0 °F 73% 30.13 in 10.0 mi Calm Calm - N/A   Clear
5:15 AM 69.6 °F - 61.3 °F 75% 30.13 in 10.0 mi WNW 3.5 mph - N/A   Clear
5:35 AM 68.9 °F - 61.3 °F 77% 30.13 in 10.0 mi WNW 3.5 mph - N/A   Clear
5:55 AM 68.2 °F - 60.6 °F 77% 30.14 in 10.0 mi Calm Calm - N/A   Clear
6:15 AM 68.9 °F - 60.8 °F 75% 30.14 in 10.0 mi Calm Calm - N/A   Clear
6:35 AM 69.3 °F - 60.8 °F 74% 30.14 in 10.0 mi Calm Calm - N/A   Clear
6:55 AM 70.7 °F - 60.8 °F 71% 30.14 in 10.0 mi Calm Calm - N/A   Clear
7:15 AM 72.7 °F - 61.5 °F 68% 30.14 in 10.0 mi Calm Calm - N/A   Clear
7:35 AM 74.3 °F - 61.0 °F 63% 30.15 in 10.0 mi Calm Calm - N/A   Clear
8:15 AM 77.7 °F - 61.0 °F 56% 30.15 in 10.0 mi Calm Calm - N/A   Clear
8:35 AM 79.9 °F - 60.4 °F 51% 30.15 in 10.0 mi NNE 4.6 mph - N/A   Clear
8:55 AM 81.1 °F 81.6 °F 59.9 °F 48% 30.16 in 10.0 mi NE 3.5 mph - N/A   Clear
9:15 AM 83.1 °F 83.0 °F 59.4 °F 44% 30.15 in 10.0 mi NE 4.6 mph - N/A   Clear
9:35 AM 84.2 °F 83.8 °F 58.8 °F 42% 30.15 in 10.0 mi NNE 3.5 mph - N/A   Clear
10:15 AM 86.2 °F 85.2 °F 57.9 °F 38% 30.15 in 10.0 mi East 5.8 mph - N/A   Clear
10:35 AM 86.9 °F 85.9 °F 57.4 °F 37% 30.15 in 10.0 mi East 3.5 mph - N/A   Clear
10:55 AM 86.4 °F 85.2 °F 57.2 °F 37% 30.15 in 10.0 mi East 8.1 mph - N/A   Clear
11:15 AM 87.4 °F 86.1 °F 57.0 °F 35% 30.15 in 10.0 mi ESE 5.8 mph - N/A   Clear
11:35 AM 88.7 °F 87.1 °F 56.5 °F 33% 30.15 in 10.0 mi East 5.8 mph - N/A   Clear
11:55 AM 88.5 °F 86.9 °F 55.6 °F 33% 30.15 in 10.0 mi East 6.9 mph - N/A   Clear
12:15 PM 89.6 °F 87.7 °F 55.2 °F 31% 30.15 in 10.0 mi East 5.8 mph - N/A   Mostly Cloudy
12:35 PM 89.2 °F 87.3 °F 54.9 °F 31% 30.14 in 10.0 mi Calm Calm - N/A   Overcast
12:55 PM 88.9 °F 87.1 °F 55.0 °F 32% 30.14 in 10.0 mi SE 5.8 mph - N/A   Overcast
1:15 PM 89.8 °F 87.9 °F 55.0 °F 31% 30.14 in 10.0 mi SSE 4.6 mph - N/A   Overcast
1:35 PM 90.5 °F 88.3 °F 54.3 °F 29% 30.13 in 10.0 mi SSE 5.8 mph - N/A   Mostly Cloudy
1:55 PM 88.7 °F 86.9 °F 55.6 °F 32% 30.12 in 10.0 mi Calm Calm - N/A   Scattered Clouds
2:15 PM 89.4 °F 87.7 °F 55.9 °F 32% 30.12 in 10.0 mi SSE 6.9 mph - N/A   Mostly Cloudy
2:35 PM 88.7 °F 87.1 °F 56.5 °F 33% 30.12 in 10.0 mi South 4.6 mph - N/A   Mostly Cloudy
2:55 PM 90.7 °F 89.2 °F 56.7 °F 32% 30.12 in 10.0 mi SSW 4.6 mph - N/A   Mostly Cloudy
3:15 PM 91.0 °F 89.2 °F 55.4 °F 30% 30.11 in 10.0 mi South 6.9 mph - N/A   Overcast
3:35 PM 89.4 °F 87.5 °F 55.4 °F 31% 30.11 in 10.0 mi South 5.8 mph - N/A   Overcast
3:55 PM 89.6 °F 87.5 °F 54.5 °F 30% 30.11 in 10.0 mi SE 6.9 mph - N/A   Overcast
4:15 PM 90.5 °F 88.3 °F 54.3 °F 29% 30.10 in 10.0 mi SSE 5.8 mph - N/A   Scattered Clouds
4:35 PM 91.0 °F 88.7 °F 53.8 °F 28% 30.10 in 10.0 mi SSW 5.8 mph - N/A   Clear
4:55 PM 90.3 °F 88.1 °F 54.3 °F 29% 30.10 in 10.0 mi West 4.6 mph - N/A   Scattered Clouds
5:15 PM 89.6 °F 87.5 °F 54.3 °F 30% 30.10 in 10.0 mi WSW 3.5 mph - N/A   Mostly Cloudy
5:35 PM 90.0 °F 87.7 °F 54.1 °F 29% 30.10 in 10.0 mi South 4.6 mph - N/A   Overcast
5:55 PM 90.0 °F 87.7 °F 53.6 °F 29% 30.09 in 10.0 mi South 4.6 mph - N/A   Overcast
6:15 PM 90.5 °F 88.3 °F 53.8 °F 29% 30.09 in 10.0 mi SE 6.9 mph - N/A   Overcast
6:35 PM 89.6 °F 87.3 °F 53.1 °F 29% 30.09 in 10.0 mi SSE 10.4 mph - N/A   Overcast
6:55 PM 88.2 °F 86.7 °F 56.1 °F 34% 30.09 in 10.0 mi SSE 8.1 mph - N/A   Overcast
7:15 PM 87.3 °F 85.9 °F 56.7 °F 35% 30.10 in 10.0 mi South 8.1 mph - N/A   Overcast
7:35 PM 85.8 °F 84.7 °F 56.8 °F 37% 30.10 in 10.0 mi SSW 6.9 mph - N/A   Overcast
8:15 PM 85.1 °F 83.8 °F 55.4 °F 36% 30.11 in 10.0 mi SSW 6.9 mph - N/A   Overcast
8:35 PM 84.6 °F 83.2 °F 54.5 °F 36% 30.11 in 10.0 mi SSW 4.6 mph - N/A   Overcast
8:55 PM 84.2 °F 83.2 °F 55.8 °F 38% 30.11 in 10.0 mi SSW 3.5 mph - N/A   Overcast
9:15 PM 83.5 °F 83.6 °F 60.1 °F 45% 30.12 in 10.0 mi SSW 6.9 mph - N/A   Overcast
9:35 PM 83.1 °F 83.7 °F 61.3 °F 48% 30.12 in 10.0 mi SSW 3.5 mph - N/A   Mostly Cloudy
9:55 PM 82.4 °F 83.2 °F 62.2 °F 50% 30.12 in 10.0 mi Calm Calm - N/A   Scattered Clouds
10:15 PM 81.7 °F 82.6 °F 62.1 °F 51% 30.12 in 10.0 mi Calm Calm - N/A   Mostly Cloudy
10:35 PM 81.5 °F 81.8 °F 59.4 °F 47% 30.13 in 10.0 mi WSW 3.5 mph - N/A   Scattered Clouds
10:55 PM 80.6 °F 81.2 °F 59.9 °F 49% 30.13 in 10.0 mi Calm Calm - N/A   Clear
11:15 PM 79.7 °F - 61.9 °F 54% 30.13 in 10.0 mi Calm Calm - N/A   Clear
11:35 PM 79.2 °F - 62.6 °F 57% 30.13 in 10.0 mi Calm Calm - N/A   Clear
11:55 PM 79.0 °F - 62.6 °F 57% 30.13 in 10.0 mi Calm Calm - N/A   Clear